Location: Eaton
(41.3139°N, 82.0207°W)
Time: 02:08:12
(UTC+00:00)

CZ-2C R/B - Pass Details

Date: 17 June 2021
Orbit: 640 x 704 km, 98.3° (Epoch: 02 August)

Event Time Altitude Azimuth Distance (km) Brightness Sun altitude
Rises 02:39:06 0° 9° (N) 3,098 7.8 -14.3°
Reaches altitude 10° 02:41:22 10° 7° (N) 2,179 7.0 -14.5°
Maximum altitude 02:46:06 64° 286° (WNW) 779 4.2 -15.1°
Drops below altitude 10° 02:50:48 10° 206° (SSW) 2,162 6.1 -15.6°
Enters shadow 02:52:13 - 204° (SSW) 2,737 6.6 -15.8°
